Weather in Trubetchino

Russia / Lipetsk Oblast     52°53′19″N   39°32′51″E
temp.,
°C
wind,
m/s
gust,
m/s
humid.,
%
clouds,
%
prec.,
mm/h
press.,
hPa
HPBL,
m
24 october, sun
sun2400:00+5w612755 0.0 1014568
03:00+3wsw5127697 0.0 1015493
06:00+6wsw5105598 0.0 1014573
09:00+6wsw61066100 0.0 10151014
12:00+6w71069100 0.1 10161200
15:00+6wnw796594 0.3 10171230
18:00+3nw61080100 0.1 1019957
21:00+2nw6117674 0.1 1020762
25 october, mon
mon2500:00+1nnw711715 0.0 1022781
03:000nnw612825 0.0 1025626
06:00−2nnw410895 0.0 1027369
09:000nnw59765 0.0 1029483
12:00+3nnw565320 0.0 1030955
15:00+4nw454827 0.0 10301063
18:00+2wnw34595 0.0 103183
21:000w356743 0.0 103198
26 october, tue
tue2600:000wsw37723 0.0 1031155
03:00−1wsw4107626 0.0 1031213
06:00−1wsw5117799 0.0 1030235
09:00+1wsw51164100 0.0 1029319
12:00+6wsw694739 0.0 1029566
15:00+7wsw6104348 0.0 1027670
18:00+4sw5125483 0.0 1027308
21:00+3sw5145538 0.0 1027313
27 october, wed
wed2700:00+3wsw6145877 0.0 1026315
03:00+2sw5136129 0.0 1026287
06:00+1sw513615 0.0 1025280
09:00+3sw614530 0.0 1024388
12:00+7sw812390 0.0 1023698
15:00+9sw7123754 0.0 1021908
18:00+6sw61344100 0.0 1021502
21:00+6wsw51255100 0.0 1021529
28 october, thu
thu2800:00+6w487518 0.0 1021382
03:00+4w488884 0.0 1022190
06:00+3w37875 0.0 1022140
09:00+5w387521 0.0 1023235
12:00+9w675133 0.0 10231340
15:00+10w4752100 0.0 10211286
18:00+8wsw51064100 0.0 1021531
21:00+8sw61167100 0.0 1019517